Погода в Новомосковске

Россия / Тульская область     54°00′39″N   38°17′27″E
темп.,
°C
ветер,
м/с
пор.,
м/с
влажн.,
%
обл.,
%
осадки,
мм/ч
давл.,
гПа
погр.,
м
15 мая, сб
сб1500:00+15юв3995100 2.0 1010180
03:00+15юв3595100 3.3 100985
06:00+16юз359722 0.6 1008122
09:00+20ююз6108399 0.9 1009626
12:00+21ююз7960100 0.0 10101256
15:00+21ююз79593 0.0 10101714
18:00+19ююз610693 0.4 1011842
21:00+15ю411860 0.4 1011271
16 мая, вс
вс1600:00+13ююз412895 0.0 1012307
03:00+12ююз48941 0.0 1013169
06:00+13ююз38915 0.0 1014202
09:00+18ююз477196 0.0 1014594
12:00+19ююз58665 0.1 1015893
15:00+21ююз685619 0.2 10142107
18:00+21зюз35664 0.0 1014290
21:00+16сз1278100 0.0 101511
17 мая, пн
пн1700:00+15всв228082 0.0 101513
03:00+13в358730 0.0 101581
06:00+14в4108822 0.0 1014224
09:00+20в69765 0.0 1013462
12:00+24вюв796252 0.0 1012793
15:00+25вюв610584 0.0 10111203
18:00+23вюв7136820 0.0 1010623
21:00+19вюв616795 0.0 1010422
18 мая, вт
вт1800:00+18юв6167394 0.0 1009441
03:00+16юв5137338 0.0 1008300
06:00+15юв5118037 0.0 1008249
09:00+19ююв61073100 0.0 1008493
12:00+23ююв7116466 0.0 10081215
15:00+23ю71066100 0.4 10081393
18:00+20ю478030 1.5 1007447
21:00+17ю368898 2.0 1007139
19 мая, ср
ср1900:00+15ююв4894100 2.4 1007227
03:00+14ююв379499 2.4 1006175
06:00+15юв4109374 0.1 1006298
09:00+16ю61288100 0.2 1005651
12:00+17ю71081100 0.2 10061030
15:00+16ююз7108419 0.5 1006777
18:00+16юз698098 0.2 1007962
21:00+12юз3794100 0.4 1010172